ORBCOMM-X 1 21576U 91050C 25298.15472225 .00000499 00000+0 16059-3 0 9995 2 21576 98.3291 2.0184 0004359 140.2457 219.9054 14.43375099800861 ORBCOMM FM01 1 23545U 95017A 25297.89652885 .00010215 00000+0 10137-2 0 9999 2 23545 69.9606 110.3093 0001777 172.9082 187.2099 14.91976490631843 ORBCOMM FM02 1 23546U 95017B 25298.01764803 .00012498 00000+0 11991-2 0 9993 2 23546 69.9617 128.8973 0003162 150.7336 209.3998 14.93243002631520 ORBCOMM FM08 1 25112U 97084A 25297.85929582 .00002444 00000+0 71494-3 0 9993 2 25112 45.0118 105.1770 0007031 182.8312 177.2501 14.46309430460141 ORBCOMM FM10 1 25113U 97084B 25297.79104876 .00002326 00000+0 68546-3 0 9991 2 25113 45.0129 108.1192 0005492 151.2267 208.8888 14.46084961635279 ORBCOMM FM11 1 25114U 97084C 25298.16377596 .00002297 00000+0 68114-3 0 9993 2 25114 45.0116 107.2012 0006344 154.4689 205.6477 14.45821213460281 ORBCOMM FM12 1 25115U 97084D 25297.77900895 .00002264 00000+0 67163-3 0 9991 2 25115 45.0122 108.7859 0005404 149.7990 210.3174 14.45840716460020 ORBCOMM FM09 1 25116U 97084E 25298.16860257 .00002407 00000+0 71348-3 0 9992 2 25116 45.0127 107.9846 0006573 142.1779 217.9536 14.45702582460284 ORBCOMM FM05 1 25117U 97084F 25298.16055235 .00002779 00000+0 80554-3 0 9996 2 25117 45.0129 103.8047 0003132 155.2077 204.8926 14.46429531459422 ORBCOMM FM06 1 25118U 97084G 25298.17237028 .00002730 00000+0 78954-3 0 9998 2 25118 45.0122 103.3339 0002057 157.5003 13.0926 14.46585151460348 ORBCOMM FM07 1 25119U 97084H 25298.15254316 .00002505 00000+0 72750-3 0 9994 2 25119 45.0116 104.1868 0003946 151.1235 208.9835 14.46602059460333 ORBCOMM FM03 1 25158U 98007B 25298.23609202 .00001448 00000+0 54992-3 0 9993 2 25158 107.9635 42.8012 0043385 18.7456 341.5271 14.34835640442691 ORBCOMM FM04 1 25159U 98007C 25298.26778544 .00001533 00000+0 57796-3 0 9993 2 25159 107.9624 46.1740 0039260 15.6934 344.5414 14.35079644442887 ORBCOMM FM17 1 25413U 98046A 25298.21882747 .00001394 00000+0 53013-3 0 9998 2 25413 44.9957 3.8060 0003324 185.3082 174.7730 14.35382060421852 ORBCOMM FM18 1 25414U 98046B 25298.27045556 .00002034 00000+0 69927-3 0 9997 2 25414 44.9925 277.4430 0005612 242.6625 117.3652 14.38947617422989 ORBCOMM FM19 1 25415U 98046C 25298.33048006 .00001933 00000+0 66914-3 0 9998 2 25415 44.9935 279.3585 0004379 245.1641 253.3383 14.38762758422947 ORBCOMM FM20 1 25416U 98046D 25298.30309815 .00001394 00000+0 50800-3 0 9992 2 25416 44.9946 284.9554 0002794 275.9514 84.1016 14.37507599422983 ORBCOMM FM16 1 25417U 98046E 25298.27988962 .00002301 00000+0 77907-3 0 9991 2 25417 44.9930 274.8842 0005938 255.5870 104.4320 14.39321604422995 ORBCOMM FM15 1 25418U 98046F 25298.28862038 .00001812 00000+0 62799-3 0 9997 2 25418 44.9968 280.3814 0005690 256.4099 103.6116 14.38951646422983 ORBCOMM FM14 1 25419U 98046G 25298.27258407 .00001930 00000+0 66056-3 0 9997 2 25419 44.9955 278.3080 0004476 258.3373 101.6973 14.39349846422959 ORBCOMM FM13 1 25420U 98046H 25298.29401550 .00001722 00000+0 61036-3 0 9992 2 25420 44.9978 287.4801 0005993 234.6156 125.4132 14.38019968421968 ORBCOMM FM21 1 25475U 98053A 25298.26208102 .00001328 00000+0 48512-3 0 9991 2 25475 45.0099 13.3859 0002780 203.3767 156.6955 14.37641995415967 ORBCOMM FM22 1 25476U 98053B 25298.20181741 .00001657 00000+0 58013-3 0 9997 2 25476 45.0082 7.4416 0004165 190.0122 170.0644 14.38776716415998 ORBCOMM FM23 1 25477U 98053C 25298.24497769 .00001493 00000+0 53714-3 0 9993 2 25477 45.0099 15.3929 0003433 188.9535 171.1253 14.37861707416112 ORBCOMM FM24 1 25478U 98053D 25298.26942811 .00001688 00000+0 59395-3 0 9996 2 25478 45.0090 12.1723 0003478 198.4901 161.5821 14.38461755416173 ORBCOMM FM25 1 25479U 98053E 25298.24344207 .00001796 00000+0 62912-3 0 9999 2 25479 45.0080 10.5861 0005866 195.3075 164.7597 14.38432525416469 ORBCOMM FM26 1 25480U 98053F 25298.20304099 .00001400 00000+0 51084-3 0 9992 2 25480 45.0084 8.1934 0007883 204.5171 155.5303 14.37435595416350 ORBCOMM FM27 1 25481U 98053G 25298.22819779 .00001645 00000+0 57998-3 0 9992 2 25481 45.0062 10.8114 0002596 221.3873 138.6780 14.38467582416396 ORBCOMM FM28 1 25482U 98053H 25298.31973592 .00001555 00000+0 54897-3 0 9992 2 25482 45.0058 307.7071 0006469 246.9530 113.0636 14.38611965417099 ORBCOMM FM30 1 25980U 99065A 25298.10859359 .00001364 00000+0 49730-3 0 9998 2 25980 45.0309 194.6317 0007287 308.3053 51.7139 14.37603569353140 ORBCOMM FM31 1 25981U 99065B 25298.08778514 .00001274 00000+0 46823-3 0 9999 2 25981 45.0219 188.1916 0004927 333.7202 26.3396 14.37531230352697 ORBCOMM FM32 1 25982U 99065C 25298.08113220 .00001476 00000+0 54492-3 0 9992 2 25982 45.0149 205.6716 0007534 325.3378 34.6978 14.36587990353277 ORBCOMM FM33 1 25983U 99065D 25297.81629565 .00001703 00000+0 57649-3 0 9997 2 25983 45.0273 102.5249 0007533 357.4049 2.6760 14.40329842354755 ORBCOMM FM36 1 25984U 99065E 25298.15718933 .00001677 00000+0 58997-3 0 9991 2 25984 45.0375 194.8143 0002612 262.6642 97.3910 14.38502713353131 ORBCOMM FM35 1 25985U 99065F 25298.09252693 .00001507 00000+0 54638-3 0 9991 2 25985 45.0381 201.2012 0005025 331.9353 28.1225 14.37434198353475 ORBCOMM FM34 1 25986U 99065G 25298.12742979 .00001367 00000+0 50040-3 0 9994 2 25986 45.0382 201.4925 0004523 293.2198 66.8174 14.37410389353592 ORBCOMM FM38 1 33060U 08031A 25298.30718871 .00003392 00000+0 45029-3 0 9994 2 33060 48.4401 54.9004 0005606 244.4661 115.5676 14.81938168934041 ORBCOMM FM41 1 33061U 08031B 25298.10979714 .00003205 00000+0 43139-3 0 9991 2 33061 48.4432 64.0768 0004662 229.4788 300.7030 14.81500840933491 ORBCOMM FM29 1 33062U 08031C 25297.81137348 .00003469 00000+0 46321-3 0 9996 2 33062 48.4379 73.1413 0006359 226.0396 287.5791 14.81625433933361 ORBCOMM FM39 1 33063U 08031D 25298.14526611 .00002996 00000+0 41832-3 0 9995 2 33063 48.4384 97.2757 0007031 198.7436 161.3221 14.80107288933048 ORBCOMM FM37 1 33064U 08031E 25298.12920412 .00002840 00000+0 39626-3 0 9997 2 33064 48.4383 85.6705 0005759 218.2479 313.0540 14.80305618933296 ORBCOMM FM40 1 33065U 08031F 25298.10733042 .00004025 00000+0 51942-3 0 9999 2 33065 48.4410 67.5755 0006992 232.4880 297.6911 14.82724306933432 VESSELSAT 1 1 37840U 11058C 25298.32954820 .00000421 00000+0 84819-4 0 9996 2 37840 19.9632 26.3751 0013575 177.6044 182.4427 14.11383080724716 ORBCOMM FM109 1 40086U 14040A 25298.22591531 .00000830 00000+0 21371-3 0 9998 2 40086 47.0017 122.0488 0002026 226.6869 133.3847 14.58409442600043 ORBCOMM FM107 1 40087U 14040B 25298.24777453 .00000995 00000+0 24859-3 0 9996 2 40087 47.0035 122.8557 0001124 181.1139 178.9745 14.58485907600123 ORBCOMM FM106 1 40088U 14040C 25298.28951672 .00001870 00000+0 34062-3 0 9998 2 40088 47.0596 294.2964 0017528 310.0010 49.9342 14.69825633602610 ORBCOMM FM111 1 40089U 14040D 25298.25933652 .00004247 00000+0 48682-3 0 9998 2 40089 46.9986 126.8395 0028633 96.8683 263.5473 14.87221332609582 ORBCOMM FM104 1 40090U 14040E 25298.03686542 .00000937 00000+0 24443-3 0 9990 2 40090 47.0038 159.0325 0015877 77.8108 282.4554 14.56877207599551 ORBCOMM FM103 1 40091U 14040F 25298.22733527 .00001024 00000+0 25515-3 0 9997 2 40091 47.0037 123.5792 0001675 172.6630 187.4280 14.58404598583082 ORBCOMM FM114 1 41179U 15081A 25298.31382641 .00001117 00000+0 27496-3 0 9991 2 41179 47.0044 32.1488 0002827 234.1826 125.8797 14.58444821523464 ORBCOMM FM119 1 41180U 15081B 25298.30768959 .00001013 00000+0 25291-3 0 9998 2 41180 47.0008 301.5271 0002041 282.6345 77.4312 14.58381584524711 ORBCOMM FM105 1 41181U 15081C 25298.32732147 .00000413 00000+0 16084-3 0 9994 2 41181 47.0022 319.0691 0002028 213.0409 147.0345 14.45341508519578 ORBCOMM FM110 1 41182U 15081D 25298.30531422 .00001426 00000+0 34057-3 0 9991 2 41182 47.0036 31.7145 0001430 81.4806 278.6242 14.58482091523333 ORBCOMM FM118 1 41183U 15081E 25298.26993365 .00001253 00000+0 30395-3 0 9994 2 41183 47.0053 32.1546 0002136 14.8086 345.2862 14.58439427523432 ORBCOMM FM112 1 41184U 15081F 25298.27447448 .00001249 00000+0 30257-3 0 9994 2 41184 46.9994 300.7140 0002118 246.0328 114.0336 14.58505160524658 ORBCOMM FM113 1 41185U 15081G 25298.32005088 .00001056 00000+0 26154-3 0 9998 2 41185 47.0011 300.8452 0002033 258.9549 101.1108 14.58500477524640 ORBCOMM FM115 1 41186U 15081H 25298.04582427 .00001066 00000+0 24122-3 0 9999 2 41186 46.9970 141.8386 0001237 286.0047 74.0704 14.62772916526783 ORBCOMM FM108 1 41187U 15081J 25298.21169499 .00001656 00000+0 38987-3 0 9998 2 41187 47.0042 212.8179 0002257 206.1576 153.9196 14.58433247525774 ORBCOMM FM117 1 41188U 15081K 25298.10947726 .00001597 00000+0 37738-3 0 9991 2 41188 46.9999 212.0206 0002944 214.7564 145.3129 14.58434424525805 ORBCOMM FM116 1 41189U 15081L 25298.09199203 .00001290 00000+0 31144-3 0 9994 2 41189 47.0025 301.8947 0001555 2.1154 357.9738 14.58507302524619